Location: Napier
(39.4830°S, 176.9170°E)
Time: 23:23:28
(UTC+12:00)

Daily predictions for brighter satellites

Satellite Brightness Start Highest point End
(mag) Time Altitude Azimuth Time Altitude Azimuth Time Altitude Azimuth
Meteor 1-31 Rocket 3.6 17:31:21 10° S 17:35:09 53° WSW 17:38:52 10° NNW
Cosmos 1844 Rocket 3.7 17:32:19 10° SSW 17:37:49 53° WNW 17:43:13 10° N
NOSS 0 Rocket 4.3 17:33:29 10° N 17:39:21 45° ENE 17:45:14 10° SE
Cosmos 2278 Rocket 3.1 17:34:37 10° S 17:39:30 28° ESE 17:44:21 10° ENE
COSMOS 2428 2.9 17:39:23 10° NNW 17:45:06 84° WSW 17:50:53 10° SSE
Cosmos 1354 Rocket 4.2 17:43:48 10° S 17:48:57 48° ESE 17:54:02 10° NE
IRIDIUM 104 4.5 17:44:45 10° S 17:49:56 52° E 17:55:03 10° NNE
Cosmos 1939 Rocket 4.5 17:48:24 10° SE 17:51:13 17° E 17:53:59 10° NE
Cosmos 2219 Rocket 2.8 17:45:43 10° NW 17:51:16 61° WSW 17:56:51 10° SSE
Cosmos 2360 Rocket 4.2 17:46:44 10° WNW 17:51:17 25° SW 17:55:54 10° S
Lacrosse 5 3.6 17:49:07 10° SSW 17:52:30 17° SSE 17:55:32 11° ESE
Cosmos 1953 Rocket 4.2 17:48:28 10° NNW 17:52:54 62° W 17:57:26 10° S
Nadezhda 4 Rocket 4.2 17:47:17 10° NNW 17:53:24 75° W 17:59:40 10° S
Cosmos 1092 Rocket 4.0 17:48:08 10° N 17:54:15 66° E 18:00:31 10° SSE
USA 276 2.2 17:51:09 10° SW 17:54:21 58° SSE 17:57:31 10° ENE
H-2A R/B 4.2 17:57:02 12° E 17:57:16 12° E 17:58:50 10° ENE
IRIDIUM 114 4.3 17:53:50 10° S 17:59:07 65° E 18:04:20 10° NNE
Cosmos 2058 2.8 17:55:25 10° N 17:59:31 71° E 18:03:43 10° SSE
Meteor 2-8 Rocket 4.4 17:55:20 10° S 18:01:36 81° E 18:07:47 10° N
SMAP 3.6 17:58:02 10° SSE 18:02:27 38° E 18:06:47 10° NNE
Atlas Centaur 2 3.4 17:58:32 10° WNW 18:03:27 35° N 18:09:30 10° ENE
Cosmos 2026 Rocket 4.1 17:57:49 10° N 18:04:06 62° E 18:10:27 10° SSE
COSMO-SKYMED 1 4.3 18:00:01 10° NNW 18:04:06 38° W 18:08:15 10° SSW
CSL-04 DEB 4.3 18:01:11 10° NNE 18:05:08 83° ESE 18:09:09 10° SSW
CZ-2C R/B 2.7 18:00:23 10° NNE 18:06:00 72° ESE 18:11:39 10° S
H-2A R/B 4.3 18:02:29 10° NNW 18:06:08 29° W 18:09:47 10° SW
DMSP B5D1-3 4.5 18:02:58 10° NNE 18:08:06 78° ESE 18:13:19 10° S
IRIDIUM 103 4.3 18:02:56 10° S 18:08:15 79° E 18:13:30 10° N
Cosmos 1825 2.5 18:05:47 10° NNW 18:09:34 70° W 18:13:24 10° S
USA 234 3.5 18:03:16 10° SE 18:09:51 71° SW 18:16:24 10° WNW
Cosmos 1408 4.5 18:09:43 10° NW 18:13:07 33° WSW 18:16:35 10° SSW
Cosmos 1842 Rocket 3.5 18:10:37 10° S 18:15:07 73° E 18:19:35 10° NNE
Cosmos 405 Rocket 2.6 18:11:32 10° N 18:15:16 84° E 18:19:08 10° S
Cosmos 1980 3.7 18:09:41 10° N 18:15:19 68° ENE 18:20:59 10° SSE
NOAA 6 4.0 18:14:21 10° SSE 18:19:33 72° ENE 18:24:41 10° N
Envisat 4.0 18:14:39 10° S 18:19:36 48° WSW 18:24:29 10° NW
FengYun 1-2 T 4.4 18:16:35 10° SSE 18:22:01 51° E 18:27:22 10° N
Radarsat Rocket 4.1 18:16:15 10° SSE 18:22:10 50° ENE 18:27:48 10° N
MOS 1-B Rocket 4.4 18:19:48 10° NE 18:24:51 35° ESE 18:30:13 10° S
Cosmos 1356 4.0 18:21:34 10° NNW 18:24:57 59° W 18:28:24 10° S
SL-16 R/B 3.1 18:22:41 10° NNE 18:27:16 26° ENE 18:28:38 24° E
Cosmos 1437 Rocket 2.7 18:24:30 10° S 18:28:15 52° ESE 18:31:58 10° NNE
MOS 1-B 4.4 18:23:49 10° SSE 18:29:38 62° ENE 18:35:24 10° N
CZ-4B R/B 3.6 18:27:17 10° NNW 18:29:54 26° W 18:32:35 10° SW
Cosmos 2221 2.7 18:26:19 10° SSW 18:30:40 73° W 18:34:56 10° N
CZ-4B DEB 4.1 18:25:07 10° SSE 18:30:41 80° ENE 18:36:10 10° NNW
Cosmos 1689 Rocket 1.8 18:32:12 10° NNE 18:35:03 79° ESE 18:37:58 10° S
Cosmos 1606 2.6 18:31:29 10° S 18:35:18 62° E 18:39:04 10° NNE
SL-8 R/B 4.0 18:31:13 10° WNW 18:36:02 63° SSW 18:38:39 27° SE
S3M 4.4 18:31:04 10° S 18:37:03 39° ESE 18:42:59 10° NE
USA 102 3.5 18:30:14 10° NE 18:37:36 60° ESE 18:38:01 57° SE
ATLAS 3B R/B 3.2 18:30:33 10° NW 18:38:04 70° SW 18:45:27 10° SSE
Meteor 2-15 Rocket 4.5 18:36:32 10° S 18:42:42 83° W 18:48:48 10° N
Cosmos 2333 Rocket 4.4 18:39:47 10° WNW 18:44:02 21° SW 18:48:20 10° S
Cosmos 1076 Rocket 4.0 18:45:17 10° NNW 18:49:32 62° W 18:53:52 10° S
Cosmos 1900 4.4 18:44:40 10° SSW 18:49:45 61° ESE 18:52:13 30° NE
Cosmos 1461 3.6 18:46:39 10° SSW 18:50:14 37° SE 18:50:14 37° SE
Cosmos 967 Rocket 4.5 18:44:32 10° SSW 18:50:55 61° ESE 18:55:13 21° NE
Cosmos 1553 Rocket 3.8 18:46:46 10° S 18:52:57 77° E 18:59:02 10° NNE
Cosmos 1777 Rocket 3.9 18:48:47 10° SSW 18:54:08 87° ESE 18:59:24 10° NNE
H-2A R/B 3.8 19:00:07 15° NNE 19:00:07 15° NNE 19:01:09 10° NNE
Cosmos 2237 Rocket 2.7 18:52:05 10° NW 18:57:40 58° WSW 19:03:17 10° SSE
Cosmos 1809 Rocket 4.4 18:55:39 10° N 19:01:52 89° E 19:08:09 10° S
CZ-2C R/B 2.7 18:59:03 16° SSE 19:02:59 84° ENE 19:07:46 10° NNW
Cosmos 2151 2.9 18:59:09 10° N 19:03:23 82° W 19:05:43 26° S
CORIOLIS 4.4 18:58:39 10° S 19:04:08 69° WSW 19:09:34 10° NNW
Meteor 1-26 Rocket 4.5 18:59:14 10° S 19:05:10 50° ESE 19:06:30 42° ENE
ERS-2 2.6 19:01:58 10° N 19:05:35 62° WNW 19:09:17 10° SSW
CZ-2D R/B 4.0 19:08:10 43° N 19:08:10 43° N 19:10:54 10° N
Cosmos 1417 Rocket 4.4 19:01:12 10° S 19:07:40 84° E 19:14:00 10° N
Okean O Rocket 1.6 19:06:03 31° S 19:08:15 86° WSW 19:12:44 10° NNW
SJ 16-02 2.5 19:04:06 10° S 19:06:30 30° S 19:06:30 30° S
Cosmos 1633 3.7 19:09:21 10° NNW 19:12:45 42° W 19:14:15 27° SSW
ATLAS CENTAUR R/B 3.9 19:10:24 10° S 19:10:37 11° S 19:10:37 11° S
Cosmos 1943 Rocket 3.7 19:13:30 10° S 19:15:55 22° SSE 19:15:55 22° SSE
Cosmos 1655 Rocket 3.9 19:13:50 10° N 19:20:10 88° E 19:26:38 10° S
Cosmos 2278 Rocket 3.4 19:18:21 10° SW 19:23:43 42° WNW 19:29:01 10° N
Meteor 2-3 Rocket 3.7 19:20:21 10° N 19:25:58 81° W 19:29:42 23° S
Cosmos 1939 Rocket 4.4 19:23:02 14° S 19:26:13 36° WSW 19:30:03 10° NW
Cosmos 2369 Rocket 4.4 19:25:31 10° S 19:25:50 11° S 19:25:50 11° S
CZ-4B R/B 3.7 19:24:48 10° S 19:30:02 55° WSW 19:35:12 10° NNW
Meteor 2-16 Rocket 4.3 19:26:11 10° N 19:32:18 83° E 19:33:54 52° SSE
H-2A R/B 3.6 19:33:35 39° W 19:33:35 39° W 19:36:37 10° NW
Lacrosse 5 2.8 19:31:18 10° SW 19:34:45 40° SSW 19:34:45 40° SSW
Atlas Centaur 2 3.8 19:46:46 10° WNW 19:52:10 30° NNW 19:52:49 30° N
SL-16 R/B 3.3 20:05:44 10° NW 20:10:36 41° WSW 20:10:36 41° WSW
